Location: Les Chemineaux
(47.3024°N, 1.5104°E)
Time: 18:53:25
(UTC+00:00)

ATLAS 3B R/B - Pass Details

Date: 19 May 2025
Orbit: 935 x 1258 km, 63.8° (Epoch: 23 June)

Event Time Altitude Azimuth Distance (km) Brightness Sun altitude
Exits shadow 21:30:09 19° 123° (ESE) 2,499 4.1 -15.7°
Maximum altitude 21:31:50 20° 105° (ESE) 2,438 4.1 -15.9°
Drops below altitude 10° 21:37:03 10° 62° (ENE) 3,192 5.1 -16.3°
Sets 21:40:42 0° 47° (NE) 4,193 5.9 -16.7°
